Content
SEND FEEDBACK

Daily
Averages
Monthly
Summary
Bangladesh

CHITTAGONG, BANGLADESH


Home > Asia > Bangladesh
Elevation: 20 feet     Latitude: 22 16N     Longitude: 091 49E

WEATHER
 
SELECT A DAY
Number of Records: 91,698;   Date Range: 10/2/96 - 10/19/14
 
SHARE

PRINT THIS DATA

[ ← Previous Day ]
WEATHER ALMANAC - MAY 22, 2013
[ Next Day → ]
[ °C ]   °F
Weather ElementAverageHighLow
Temperature76.7 °F80.6 °F (2:50 pm)73.4 °F (10:50 am)
Dewpoint74.8 °F77 °F (1:50 pm)71.6 °F (8:50 pm)
Humidity93.7 %100 % (6:50 am)83 % (5:50 am)
Barometer29.61 in29.68 in (8:50 am)29.53 in (3:50 pm)
Wind Speed6.6 mph16.1 mph (6:50 pm)
Weather ElementAverage
Visibility2.3 mi
Wind DirectionESE (109 °)

Weather ElementTotal
Precipitation---
Cooling Degree Days12 (Base 65)
Growing Degree Days27 (Base 50)
Averaged from 21 records on May 22, 2013
WEATHER CONDITIONS BREAKOUT
WIND DIRECTION BREAKOUT
WEATHER BY HOUR - MAY 22, 2013
[ °C ]   °F
Local TimeTemperatureDewpointHumidityBarometerVisibilityWind DirectionWind SpeedGust SpeedPrecipitationEventsConditions
5:50 AM78.8 °F73.4 °F83 %29.62 in2.5 miESE (120°)5.8 mphRainRain
6:00 AM75.0 °F73.0 °F93 %29.63 in2.0 miESE (120°)5.8 mphRainLight Rain
6:50 AM75.2 °F75.2 °F100 %29.62 in2.2 miEast (100°)5.8 mphRainRain
7:50 AM75.2 °F75.2 °F100 %29.65 inEast (90°)5.8 mphRainRain
8:50 AM75.2 °F75.2 °F100 %29.68 inENE (60°)5.8 mphRainRain
9:50 AM75.2 °F75.2 °F100 %29.65 inESE (120°)5.8 mphRainRain
10:50 AM73.4 °F73.4 °F100 %29.68 inEast (90°)5.8 mphRainRain
11:50 AM75.2 °F75.2 °F100 %29.68 in2.2 miEast (90°)6.9 mphRainRain
12:50 PM77.0 °F75.2 °F94 %29.65 in2.2 miEast (90°)8.1 mphRainRain
1:50 PM78.8 °F77.0 °F94 %29.62 in2.5 miESE (120°)4.6 mphDrizzle
2:50 PM80.6 °F77.0 °F89 %29.56 in2.5 miESE (120°)4.6 mphDrizzle
3:50 PM80.6 °F77.0 °F89 %29.53 in2.5 miEast (90°)3.5 mphRainRain
4:50 PM80.6 °F77.0 °F89 %29.53 in2.5 miEast (90°)4.6 mphOvercast
5:50 PM80.6 °F77.0 °F89 %29.53 in2.5 miESE (120°)9.2 mphOvercast
6:00 PM80.0 °F77.0 °F88 %29.57 in2.0 miESE (120°)9.2 mphPartly Cloudy
6:50 PM78.8 °F75.2 °F89 %29.59 in1.1 miWNW (300°)16.1 mphRain-ThunderstormThunderstorms and Rain
7:50 PM77.0 °F75.2 °F94 %29.56 in1.7 miSSW (210°)9.2 mphRain-ThunderstormThunderstorms and Rain
8:50 PM73.4 °F71.6 °F94 %29.62 in2.5 miSE (140°)4.6 mphThunderstormThunderstorm
9:50 PM73.4 °F71.6 °F94 %29.62 inNorthOvercast
10:50 PM73.4 °F71.6 °F94 %29.62 inNorthOvercast
11:50 PM73.4 °F71.6 °F94 %29.62 in3.1 miEast (100°)3.5 mphOvercast
Hourly data recorded from VGEG, located miles away from Chittagong, Bangladesh







STORIES FROM OUR PARTNERS